Regional Weather Roundup
Issued by NWS Charleston, SC

Current Version | Previous Version | Graphics & Text | Print | Product List | Glossary On
Versions: 1 2 3 4 5 6 7 8 9 10 11 12 13 14 15 16 17 18 19 20 21 22 23 24 25 26 27 28 29 30 31 32 33 34 35 36 37 38 39 40 41 42 43 44 45 46 47 48 49 50
000
ASUS42 KCHS 240727
RWRCHS

REGIONAL WEATHER ROUNDUP
NATIONAL WEATHER SERVICE CHARLESTON SC
300 AM EDT MON JUL 24 2017

NOTE: "FAIR" INDICATES FEW OR NO CLOUDS BELOW 12,000 FEET WITH NO
SIGNIFICANT WEATHER AND/OR OBSTRUCTIONS TO VISIBILITY.

NOT ALL STATIONS ARE QUALITY CONTROLLED. USE DATA WITH CAUTION...
ESPECIALLY DEWPOINT OBSERVATIONS.

SCZ027-030-031-034>040-042>050-240800-
...SOUTHEAST SOUTH CAROLINA...

CITY           SKY/WX    TMP DP  RH WIND       PRES   REMARKS
N CHARLESTON   MOCLDY    79  74  84 SW7       29.91F
WATERFRONT PRK   N/A     80  76  87 SW7       29.90F
JOHNS ISLAND   FAIR      81  75  83 SW10      29.92S
PINOPOLIS        N/A     79  75  89 SW6       29.82F
MONCKS CORNER  FAIR      77  73  88 SW8       29.90S
SUMMERVILLE    CLOUDY    75  73  94 S3        29.92S
BEAUFORT MCAS  MOCLDY    79  76  90 SW12      29.92F
BEAUFORT ARPT  FAIR      79  73  83 SW7       29.92S
HILTON HEAD IS PTCLDY    79  75  89 SW9G16    29.94R
WALTERBORO     CLOUDY    75  73  94 SW6       29.92S
ALLENDALE      NOT AVBL

...SOUTHERN MIDLANDS AND PEE DEE...

CITY           SKY/WX    TMP DP  RH WIND       PRES   REMARKS
GEORGETOWN     FAIR      77  75  94 S6        29.90S
KINGSTREE      FAIR      73  72  94 SW5       29.89R
ORANGEBURG     CLOUDY    74  73  97 SW3       29.90F
BARNWELL       CLOUDY    77  77 100 CALM      29.90F
AIKEN          FAIR      72  70  94 W3        29.94S
MANNING        FAIR      77  75  94 W9        29.89S
COLUMBIA       CLOUDY    74  72  93 S3        29.89R
SUMTER         MOCLDY    73  70  88 SW6       29.87F
FLORENCE       CLOUDY    73  73 100 CALM      29.90R
MYRTLE BEACH   PTCLDY    79  75  87 SW10      29.89
N MYRTLE BEACH MOCLDY    80  75  84 SW12      29.87S

$$

GAZ063-065-086>088-099>101-113>116-118-119-134>141-150-240800-
...SOUTHEAST GEORGIA...

CITY           SKY/WX    TMP DP  RH WIND       PRES   REMARKS
SAVANNAH ARPT  CLOUDY   N/A N/A N/A SW10      29.94F
HUNTER AAF     PTCLDY    78  74  88 SW10      29.91F
FORT STEWART   MOCLDY    76  73  90 S8        29.92F
STATESBORO     CLOUDY    78  78 100 W7        29.93F
SYLVANIA       CLOUDY    78  77  95 SW3       29.93F
CLAXTON        FAIR      77  75  93 CALM      29.94S

...CSRA...CENTRAL AND FAR SOUTHEAST GEORGIA...

CITY           SKY/WX    TMP DP  RH WIND       PRES   REMARKS
THOMSON        LGT RAIN  72  71  97 CALM      29.96S
AUGUSTA-BUSH   MOCLDY    75  73  93 S3        29.90F
AUGUSTA-DANIEL CLOUDY    75  71  87 S5        29.91F
SWAINSBORO     PTSUNNY   77  77 100 SW5       29.94S
VIDALIA        MOCLDY    77  75  94 SW7       29.94F
EASTMAN        FAIR      78  77  99 SW6       29.97S
HAZLEHURST     FAIR      78  78 100 SW9       29.94S
ALMA           MOCLDY    77  74  90 S6        29.95F
WAYCROSS       PTCLDY    78  78 100 SW8       29.96F
JESUP          NOT AVBL
BAXLEY         CLOUDY    77  77 100 SW6       29.94F
BRUNSWICK      CLOUDY    77  75  94 SW10      29.95F
SAINT SIMONS   PTCLDY    79  75  87 SW12      29.95F

$$

SCZ027-028-034-036>038-045-046-048>050-GAZ119-141-240800-
...LAKE AND SUPPLEMENTAL COASTAL OBSERVATIONS...

STATION/POSITION TIME  TEMP    WIND        PRES    WAVE   SWELL
                       AIR SEA DIR/SP/G            HT/PER HT/PER/DIR
                 (UTC) (F)     (DEG/KT/KT) (MB)    (FT/S) (FT/S/D)
WINYAH BAY       0645   79     230/  8     1012.0S
LAKE MURRAY      0650   77     240/ 10/ 15 1011.2F
ACE BASIN NERRS  0645   79     200/  1     1013.0F
FORT PULASKI     0700   79 86  240/  8/ 13 1014.0
SAPELO ISLAND    0700   78     210/ 12     1014.0

$$

ANZ835-935-AMZ111-154-330-350-352-354-370-450-454-472-240800-
...C-MAN AND BUOY OBSERVATIONS...

STATION/POSITION TIME  TEMP    WIND        PRES    WAVE   SWELL
                       AIR SEA DIR/SP/G            HT/PER HT/PER/DIR
                 (UTC) (F)     (DEG/KT/KT) (MB)    (FT/S) (FT/S/D)
BUOY 41004       0710   81 83  220/ 21/ 27 1012.6
BUOY 41008       0650   80 81  210/ 17/ 21 1013.8F   4/ 5   2/110/ 9
FOLLY BEACH CMAN 0700   81     230/ 13/ 17 1013.4F
CAPERS NEARSHORE 0708   79 85  230/ 19/ 25 1012.7R
FRIPP NEARSHORE  0708   82 85  230/ 19/ 25 1012.8F


STATION/POSITION TIME  TEMP    WIND        PRES    WAVE   SWELL
                       AIR SEA DIR/SP/G            HT/PER HT/PER/DIR
                 (UTC) (F)     (DEG/KT/KT) (MB)    (FT/S) (FT/S/D)
5E ST. MARYS GA  0700      78                N/A     2/10
FRYING PAN BUOY  0700   82 82  210/ 21/ 25 1012.3
BUOY 41025       0650   82 84  230/ 16/ 19 1011.2F   7/ 7
CAPE LOOKOUT NC  0700   81     220/ 14/ 18 1011.4F
BUOY 41002       0650   83 83  200/ 16/ 19 1016.0F   5/ 6   2/110/ 9
BUOY 41010       0710   85 85  190/ 14/ 16 1016.8
ST AUGUSTINE FL  0700   76 75  210/  8/ 11 1015.7F


$$




USA.gov is the U.S. government's official web portal to all federal, state and local government web resources and services.